Location: Florida Caverns State Park
(30.8073°N, 85.2161°W)
Time: 03:53:37
(UTC-04:00)

OTV 5 (USA 277) - Visible Passes

Search period start: 26 March 2019 00:00
Search period end: 05 April 2019 00:00
Orbit: 315 x 320 km, 54.5° (Epoch: 14 March)

Date Brightness Start Highest point End Pass type
(mag) Time Alt. Az. Time Alt. Az. Time Alt. Az.
28 Mar ? 06:28:57 10° SE 06:29:43 11° ESE 06:30:29 10° ESE visible
29 Mar ? 06:41:41 10° SSW 06:44:13 38° SE 06:46:46 10° ENE visible
30 Mar ? 06:56:24 11° WSW 06:58:52 44° NW 07:01:29 10° NNE visible
31 Mar ? 05:40:17 17° E 05:40:17 17° E 05:41:30 10° ENE visible
01 Apr ? 05:54:56 36° NE 05:54:56 36° NE 05:56:41 10° NE visible
02 Apr ? 06:09:27 21° NNW 06:09:27 21° NNW 06:10:59 10° NNE visible
